Tulsa, OK

12:56 PM CDT on July 23, 2017 (GMT -0500)
Tulsa International

Weather History for KTUL - July, 2012

Change the Weather History Date:

Saturday, July 14, 2012

  Actual Average Record
Temperature  
Mean Temperature 85 °F 83 °F  
Max Temperature 100 °F 93 °F 112 °F (1954)
Min Temperature 69 °F 73 °F 54 °F (1967)
Cooling Degree Days 20 18  
Month to date cooling degree days 302 242  
Year to date cooling degree days 1260 855  
Since 1 June cooling degree days 784 621  
Growing Degree Days 34 (Base 50)    
Moisture  
Dew Point 66 °F    
Average Humidity 61    
Maximum Humidity 97    
Minimum Humidity 24    
Precipitation  
Precipitation 0.00 in 0.10 in 3.25 in (1994)
Month to date precipitation 1.00 1.65  
Year to date precipitation 18.55 22.87  
Sea Level Pressure  
Sea Level Pressure 29.96 in    
Wind  
Wind Speed 4 mph (SE)    
Max Wind Speed 20 mph    
Max Gust Speed 24 mph    
Visibility 9 miles    
Events      
T = Trace of Precipitation, MM = Missing Value Source: NWS Daily Summary

Daily Weather History Graph

Daily Weather History Graph

Search for Another Location

Airport or City:

Trip Planner

Search our weather history database for the weather conditions in past years. The results will help you decide how hot, cold, wet, or windy it might be!

Date:

Astronomy

Jul. 14, 2012 Rise Set
Actual Time 6:17 AM CDT 8:41 PM CDT
Civil Twilight 5:47 AM CDT 9:10 PM CDT
Nautical Twilight 5:11 AM CDT 9:47 PM CDT
Astronomical Twilight 4:31 AM CDT 10:27 PM CDT
Moon 2:31 AM CDT (7/14) 5:06 PM CDT (7/14)
Length of Visible Light 15h 22m
Length of Day
14h 23m
Waning Crescent, 18% of the Moon is Illuminated
Jul 14
Waning Crescent
Jul 18
New
Jul 26
First Quarter
Aug 1
Full
Aug 9
Last Quarter

Hourly Weather History & Observations

Time (CDT) Temp. Heat Index Dew Point Humidity Pressure Visibility Wind Dir Wind Speed Gust Speed Precip Events Conditions
12:53 AM 72.0 °F - 70.0 °F 93% 29.95 in 8.0 mi NNW 3.5 mph - N/A   Clear
1:53 AM 72.0 °F - 69.1 °F 91% 29.94 in 9.0 mi Calm Calm - N/A   Clear
2:53 AM 73.9 °F - 69.1 °F 85% 29.96 in 8.0 mi Calm Calm - N/A   Clear
3:53 AM 71.6 °F - 68.0 °F 88% 29.98 in 8.0 mi Calm Calm - N/A   Clear
4:53 AM 70.0 °F - 68.0 °F 93% 29.97 in 7.0 mi Calm Calm - N/A   Clear
5:53 AM 70.0 °F - 68.0 °F 93% 29.98 in 7.0 mi Calm Calm - N/A   Clear
6:53 AM 71.1 °F - 68.0 °F 90% 30.00 in 6.0 mi Calm Calm - N/A   Clear
7:53 AM 73.9 °F - 69.1 °F 85% 30.01 in 7.0 mi Calm Calm - N/A   Clear
8:53 AM 79.0 °F - 70.0 °F 74% 30.02 in 10.0 mi South 4.6 mph - N/A   Clear
9:53 AM 82.9 °F 86.5 °F 69.1 °F 63% 30.02 in 10.0 mi SW 3.5 mph - N/A   Clear
10:53 AM 87.1 °F 91.3 °F 69.1 °F 55% 30.01 in 10.0 mi Variable 3.5 mph - N/A   Clear
11:53 AM 89.1 °F 93.7 °F 69.1 °F 52% 30.01 in 10.0 mi Calm Calm - N/A   Partly Cloudy
12:53 PM 91.0 °F 94.3 °F 66.9 °F 45% 29.99 in 10.0 mi Variable 3.5 mph - N/A   Partly Cloudy
1:53 PM 95.0 °F 97.9 °F 66.0 °F 38% 29.96 in 10.0 mi Calm Calm - N/A   Partly Cloudy
2:53 PM 98.1 °F 101.8 °F 66.0 °F 35% 29.93 in 10.0 mi Variable 4.6 mph - N/A   Scattered Clouds
3:53 PM 99.0 °F 102.3 °F 64.9 °F 33% 29.91 in 10.0 mi NNW 6.9 mph - N/A   Scattered Clouds
4:53 PM 99.0 °F 99.5 °F 61.0 °F 28% 29.90 in 10.0 mi NE 6.9 mph - N/A   Partly Cloudy
5:53 PM 100.0 °F 99.2 °F 57.0 °F 24% 29.88 in 10.0 mi ENE 6.9 mph - N/A   Partly Cloudy
6:33 PM 91.4 °F 94.0 °F 66.2 °F 43% 29.92 in 10.0 mi SSE 15.0 mph - N/A   Partly Cloudy
6:53 PM 91.0 °F 93.8 °F 66.0 °F 44% 29.91 in 10.0 mi SSE 16.1 mph - N/A   Partly Cloudy
7:53 PM 87.1 °F 88.3 °F 64.0 °F 46% 29.94 in 10.0 mi SE 15.0 mph - N/A   Clear
8:53 PM 82.9 °F 83.3 °F 61.0 °F 47% 29.95 in 10.0 mi SE 9.2 mph - N/A   Clear
9:53 PM 82.0 °F 83.1 °F 63.0 °F 52% 29.97 in 10.0 mi SSE 8.1 mph - N/A   Clear
10:53 PM 77.0 °F - 63.0 °F 62% 29.98 in 10.0 mi ESE 8.1 mph - N/A   Clear
11:53 PM 75.0 °F - 64.0 °F 69% 29.99 in 10.0 mi ESE 3.5 mph - N/A   Clear